HISTORICAL SENSOR DATA

Sensor Data Report

DB LIVE
CURRENT TIME--:--:--
DEVICE NETWORK Gateway Status
13 ESP · realtime ~1s · history 60s
Weather WS-MOD-01
ONLINE
Actuator ACT-MOD-01
OFFLINE
Mainboard L3 MB-L3-01
ONLINE
Mainboard L5 MB-L5-01
ONLINE
Remote AC AC-REMOTE-01
ONLINE
PZEM L3-01 PWR-L3-01
OFFLINE
PZEM L3-02 PWR-L3-02
OFFLINE
PZEM L3-03 PWR-L3-03
OFFLINE
PZEM L3-04 PWR-L3-04
OFFLINE
PZEM L5-01 PWR-L5-01
ONLINE
PZEM L5-02 PWR-L5-02
ONLINE
PZEM L5-03 PWR-L5-03
OFFLINE
PZEM L5-04 PWR-L5-04
OFFLINE
REPORT FILTER

Periode & Sensor

DATABASE HISTORY
RESET
QUICK RANGE Hari ini 7 hari 30 hari
PERIODE08 Aug 2026sampai 06 Sep 2026
TOTAL DATA67,817sensor readings
MINIMUM-0.50sesuai filter
AVERAGE84.86sesuai filter
MAXIMUM32,564.20sesuai filter
REPORT RESULT

Data Sensor

08/08/2026 — 06/09/2026 EXPORT CSV
NOTANGGALWAKTUDEVICECHANNELSENSORVALUEUNIT
401 06/09/2026 23:54:00 MB-L5-01Mainboard Lantai 5 L5-HFT-01 Heat Flow Temperature 1 23.90 °C
402 06/09/2026 23:54:00 MB-L5-01Mainboard Lantai 5 L5-LUX-04 Illuminance / LUX 4 0.10 lux
403 06/09/2026 23:54:00 WS-MOD-01Weather Station Module WS-RH Kelembapan Udara 77.70 %RH
404 06/09/2026 23:54:00 MB-L5-01Mainboard Lantai 5 L5-RAD-01 Radiation 1 1.00 W/m²
405 06/09/2026 23:53:00 MB-L3-01Mainboard Lantai 3 L3-SHT-03-T SHT20 3 Temperature 29.00 °C
406 06/09/2026 23:53:00 WS-MOD-01Weather Station Module WS-TEMP Suhu Udara 19.70 °C
407 06/09/2026 23:53:00 AC-REMOTE-01Remote AC AC-FAN AC Fan Speed 0.00 code
408 06/09/2026 23:53:00 MB-L5-01Mainboard Lantai 5 L5-BGT-03 Black Globe Temperature 3 26.50 °C
409 06/09/2026 23:53:00 MB-L5-01Mainboard Lantai 5 L5-ST-01 Surface Temperature 1 24.00 °C
410 06/09/2026 23:53:00 MB-L5-01Mainboard Lantai 5 L5-LUX-01 Illuminance / LUX 1 0.00 lux
411 06/09/2026 23:53:00 WS-MOD-01Weather Station Module WS-DIR Arah Angin 72.30 °
412 06/09/2026 23:53:00 MB-L3-01Mainboard Lantai 3 L3-RAD-02 Radiation 2 0.00 W/m²
413 06/09/2026 23:53:00 MB-L3-01Mainboard Lantai 3 L3-AI-05 Analog Input 5 3.12 V
414 06/09/2026 23:53:00 MB-L5-01Mainboard Lantai 5 L5-HFT-02 Heat Flow Temperature 2 23.00 °C
415 06/09/2026 23:53:00 MB-L3-01Mainboard Lantai 3 L3-LUX-02 Illuminance / LUX 2 0.20 lux
416 06/09/2026 23:53:00 PWR-L5-02Power Meter L5 PZEM 02 PZEM-L5-02-POWER PZEM L5-02 Active Power 0.00 W
417 06/09/2026 23:53:00 MB-L5-01Mainboard Lantai 5 L5-AI-02 Analog Input 2 3.05 V
418 06/09/2026 23:53:00 PWR-L5-01Power Meter L5 PZEM 01 PZEM-L5-01-VOLT PZEM L5-01 Voltage 224.70 V
419 06/09/2026 23:53:00 AC-REMOTE-01Remote AC AC-MODE AC Operating Mode 1.00 code
420 06/09/2026 23:53:00 MB-L3-01Mainboard Lantai 3 L3-SHT-01-T SHT20 1 Temperature 28.60 °C
421 06/09/2026 23:53:00 MB-L3-01Mainboard Lantai 3 L3-SHT-02-T SHT20 2 Temperature 29.00 °C
422 06/09/2026 23:53:00 PWR-L5-02Power Meter L5 PZEM 02 PZEM-L5-02-PF PZEM L5-02 Power Factor 0.00
423 06/09/2026 23:53:00 MB-L5-01Mainboard Lantai 5 L5-BGT-01 Black Globe Temperature 1 26.70 °C
424 06/09/2026 23:53:00 MB-L5-01Mainboard Lantai 5 L5-AI-05 Analog Input 5 3.05 V
425 06/09/2026 23:53:00 MB-L3-01Mainboard Lantai 3 L3-AI-03 Analog Input 3 3.12 V
426 06/09/2026 23:53:00 WS-MOD-01Weather Station Module WS-WIND Kecepatan Angin 6.10 m/s
427 06/09/2026 23:53:00 PWR-L5-01Power Meter L5 PZEM 01 PZEM-L5-01-CURR PZEM L5-01 Current 0.12 A
428 06/09/2026 23:53:00 MB-L5-01Mainboard Lantai 5 L5-ST-02 Surface Temperature 2 23.30 °C
429 06/09/2026 23:53:00 MB-L5-01Mainboard Lantai 5 L5-SHT-01-RH SHT20 1 Humidity 45.80 %RH
430 06/09/2026 23:53:00 PWR-L5-02Power Meter L5 PZEM 02 PZEM-L5-02-CURR PZEM L5-02 Current 0.00 A
431 06/09/2026 23:53:00 MB-L3-01Mainboard Lantai 3 L3-LUX-06 Illuminance / LUX 6 0.30 lux
432 06/09/2026 23:53:00 WS-MOD-01Weather Station Module WS-PRES Tekanan Udara 912.00 hPa
433 06/09/2026 23:53:00 MB-L5-01Mainboard Lantai 5 L5-SHT-02-T SHT20 2 Temperature 29.00 °C
434 06/09/2026 23:53:00 MB-L3-01Mainboard Lantai 3 L3-LUX-04 Illuminance / LUX 4 0.10 lux
435 06/09/2026 23:53:00 AC-REMOTE-01Remote AC AC-SETPOINT AC Set Temperature 23.00 °C
436 06/09/2026 23:53:00 PWR-L5-01Power Meter L5 PZEM 01 PZEM-L5-01-POWER PZEM L5-01 Active Power 10.50 W
437 06/09/2026 23:53:00 MB-L3-01Mainboard Lantai 3 L3-AI-01 Analog Input 1 3.12 V
438 06/09/2026 23:53:00 MB-L5-01Mainboard Lantai 5 L5-SHT-03-RH SHT20 3 Humidity 45.60 %RH
439 06/09/2026 23:53:00 MB-L3-01Mainboard Lantai 3 L3-SHT-02-RH SHT20 2 Humidity 44.90 %RH
440 06/09/2026 23:53:00 MB-L5-01Mainboard Lantai 5 L5-SHT-01-T SHT20 1 Temperature 28.70 °C
441 06/09/2026 23:53:00 MB-L3-01Mainboard Lantai 3 L3-SHT-03-RH SHT20 3 Humidity 45.10 %RH
442 06/09/2026 23:53:00 MB-L5-01Mainboard Lantai 5 L5-LUX-03 Illuminance / LUX 3 0.10 lux
443 06/09/2026 23:53:00 MB-L5-01Mainboard Lantai 5 L5-SHT-03-T SHT20 3 Temperature 29.00 °C
444 06/09/2026 23:53:00 MB-L3-01Mainboard Lantai 3 L3-AI-06 Analog Input 6 3.12 V
445 06/09/2026 23:53:00 MB-L5-01Mainboard Lantai 5 L5-AI-03 Analog Input 3 3.05 V
446 06/09/2026 23:53:00 MB-L5-01Mainboard Lantai 5 L5-SHT-02-RH SHT20 2 Humidity 45.00 %RH
447 06/09/2026 23:53:00 PWR-L5-02Power Meter L5 PZEM 02 PZEM-L5-02-FREQ PZEM L5-02 Frequency 50.00 Hz
448 06/09/2026 23:53:00 MB-L3-01Mainboard Lantai 3 L3-RAD-01 Radiation 1 1.00 W/m²
449 06/09/2026 23:53:00 PWR-L5-01Power Meter L5 PZEM 01 PZEM-L5-01-ENERGY PZEM L5-01 Energy 0.06 kWh
450 06/09/2026 23:53:00 MB-L5-01Mainboard Lantai 5 L5-BGT-02 Black Globe Temperature 2 26.80 °C
451 06/09/2026 23:53:00 PWR-L5-02Power Meter L5 PZEM 02 PZEM-L5-02-VOLT PZEM L5-02 Voltage 224.50 V
452 06/09/2026 23:53:00 MB-L5-01Mainboard Lantai 5 L5-AI-06 Analog Input 6 3.05 V
453 06/09/2026 23:53:00 AC-REMOTE-01Remote AC AC-POWER AC Power State 1.00 state
454 06/09/2026 23:53:00 MB-L3-01Mainboard Lantai 3 L3-AI-04 Analog Input 4 3.12 V
455 06/09/2026 23:53:00 MB-L3-01Mainboard Lantai 3 L3-LUX-05 Illuminance / LUX 5 0.30 lux
456 06/09/2026 23:53:00 MB-L5-01Mainboard Lantai 5 L5-RAD-02 Radiation 2 1.00 W/m²
457 06/09/2026 23:53:00 MB-L5-01Mainboard Lantai 5 L5-HFT-01 Heat Flow Temperature 1 23.90 °C
458 06/09/2026 23:53:00 MB-L5-01Mainboard Lantai 5 L5-LUX-04 Illuminance / LUX 4 0.10 lux
459 06/09/2026 23:53:00 WS-MOD-01Weather Station Module WS-RH Kelembapan Udara 77.60 %RH
460 06/09/2026 23:53:00 MB-L5-01Mainboard Lantai 5 L5-RAD-01 Radiation 1 1.00 W/m²
461 06/09/2026 23:53:00 MB-L5-01Mainboard Lantai 5 L5-AI-01 Analog Input 1 3.05 V
462 06/09/2026 23:53:00 MB-L5-01Mainboard Lantai 5 L5-LUX-02 Illuminance / LUX 2 0.10 lux
463 06/09/2026 23:53:00 PWR-L5-01Power Meter L5 PZEM 01 PZEM-L5-01-FREQ PZEM L5-01 Frequency 50.00 Hz
464 06/09/2026 23:53:00 PWR-L5-02Power Meter L5 PZEM 02 PZEM-L5-02-ENERGY PZEM L5-02 Energy 0.04 kWh
465 06/09/2026 23:53:00 MB-L3-01Mainboard Lantai 3 L3-LUX-01 Illuminance / LUX 1 0.20 lux
466 06/09/2026 23:53:00 MB-L5-01Mainboard Lantai 5 L5-LUX-06 Illuminance / LUX 6 0.10 lux
467 06/09/2026 23:53:00 MB-L3-01Mainboard Lantai 3 L3-AI-02 Analog Input 2 3.12 V
468 06/09/2026 23:53:00 MB-L5-01Mainboard Lantai 5 L5-AI-04 Analog Input 4 3.05 V
469 06/09/2026 23:53:00 MB-L3-01Mainboard Lantai 3 L3-SHT-01-RH SHT20 1 Humidity 45.50 %RH
470 06/09/2026 23:53:00 MB-L3-01Mainboard Lantai 3 L3-LUX-03 Illuminance / LUX 3 0.20 lux
471 06/09/2026 23:53:00 PWR-L5-01Power Meter L5 PZEM 01 PZEM-L5-01-PF PZEM L5-01 Power Factor 0.38
472 06/09/2026 23:52:00 AC-REMOTE-01Remote AC AC-MODE AC Operating Mode 1.00 code
473 06/09/2026 23:52:00 MB-L3-01Mainboard Lantai 3 L3-SHT-01-T SHT20 1 Temperature 28.60 °C
474 06/09/2026 23:52:00 MB-L3-01Mainboard Lantai 3 L3-SHT-02-T SHT20 2 Temperature 29.00 °C
475 06/09/2026 23:52:00 PWR-L5-02Power Meter L5 PZEM 02 PZEM-L5-02-PF PZEM L5-02 Power Factor 0.00
476 06/09/2026 23:52:00 MB-L5-01Mainboard Lantai 5 L5-BGT-01 Black Globe Temperature 1 26.80 °C
477 06/09/2026 23:52:00 MB-L5-01Mainboard Lantai 5 L5-LUX-05 Illuminance / LUX 5 0.10 lux
478 06/09/2026 23:52:00 MB-L5-01Mainboard Lantai 5 L5-AI-05 Analog Input 5 3.05 V
479 06/09/2026 23:52:00 MB-L3-01Mainboard Lantai 3 L3-AI-03 Analog Input 3 3.12 V
480 06/09/2026 23:52:00 WS-MOD-01Weather Station Module WS-WIND Kecepatan Angin 6.09 m/s
481 06/09/2026 23:52:00 PWR-L5-01Power Meter L5 PZEM 01 PZEM-L5-01-CURR PZEM L5-01 Current 0.12 A
482 06/09/2026 23:52:00 MB-L5-01Mainboard Lantai 5 L5-ST-02 Surface Temperature 2 23.30 °C
483 06/09/2026 23:52:00 MB-L5-01Mainboard Lantai 5 L5-SHT-01-RH SHT20 1 Humidity 45.80 %RH
484 06/09/2026 23:52:00 PWR-L5-02Power Meter L5 PZEM 02 PZEM-L5-02-CURR PZEM L5-02 Current 0.00 A
485 06/09/2026 23:52:00 MB-L3-01Mainboard Lantai 3 L3-LUX-06 Illuminance / LUX 6 0.30 lux
486 06/09/2026 23:52:00 WS-MOD-01Weather Station Module WS-PRES Tekanan Udara 912.00 hPa
487 06/09/2026 23:52:00 MB-L5-01Mainboard Lantai 5 L5-SHT-02-T SHT20 2 Temperature 29.10 °C
488 06/09/2026 23:52:00 MB-L3-01Mainboard Lantai 3 L3-LUX-04 Illuminance / LUX 4 0.10 lux
489 06/09/2026 23:52:00 AC-REMOTE-01Remote AC AC-SETPOINT AC Set Temperature 23.00 °C
490 06/09/2026 23:52:00 PWR-L5-01Power Meter L5 PZEM 01 PZEM-L5-01-POWER PZEM L5-01 Active Power 10.40 W
491 06/09/2026 23:52:00 MB-L3-01Mainboard Lantai 3 L3-AI-01 Analog Input 1 3.12 V
492 06/09/2026 23:52:00 MB-L5-01Mainboard Lantai 5 L5-SHT-03-RH SHT20 3 Humidity 45.40 %RH
493 06/09/2026 23:52:00 MB-L3-01Mainboard Lantai 3 L3-SHT-02-RH SHT20 2 Humidity 44.90 %RH
494 06/09/2026 23:52:00 MB-L5-01Mainboard Lantai 5 L5-SHT-01-T SHT20 1 Temperature 28.70 °C
495 06/09/2026 23:52:00 MB-L3-01Mainboard Lantai 3 L3-SHT-03-RH SHT20 3 Humidity 45.10 %RH
496 06/09/2026 23:52:00 MB-L5-01Mainboard Lantai 5 L5-LUX-03 Illuminance / LUX 3 0.10 lux
497 06/09/2026 23:52:00 MB-L5-01Mainboard Lantai 5 L5-SHT-03-T SHT20 3 Temperature 28.90 °C
498 06/09/2026 23:52:00 MB-L3-01Mainboard Lantai 3 L3-AI-06 Analog Input 6 3.12 V
499 06/09/2026 23:52:00 MB-L5-01Mainboard Lantai 5 L5-AI-03 Analog Input 3 3.05 V
500 06/09/2026 23:52:00 MB-L5-01Mainboard Lantai 5 L5-SHT-02-RH SHT20 2 Humidity 45.00 %RH
Menampilkan maksimal 100 data per halaman